Zurück zum Katalog

STARLINK-11101

AktivKommunikationVLEO
NORAD 59715·PAYLOAD·🇺🇸 United States

Gestartet May 10, 2024 von Vandenberg Space Force Base

Loading…

Nächste Überflüge (nächste 24 Stunden)

TLE

AktuellSource: CelesTrak SupGP

Epoche: Sep 14, 2026, 20:49 UTC

1 59715C 24088H   26257.86784722 -.00062429  00000+0 -51423-3 0  2574
2 59715  53.1562 113.5998 0001112  95.2876 351.9589 15.69741638    10

Verfolge STARLINK-11101 in Echtzeit mit AllMySat

Download on the App Store